DW3354 Weather Reports


time (UTC)temp
C
wind
direction
speed
KPH
gust
KPH
rain 1hr
cm
rain 24hr
cm
rain mn
cm
humidity
%
barometer
mb
20260902204501 23 73 3.2 9.7 0.00 0.00 0.00 63 1016.7
20260902204001 23 112 0.0 8.0 0.00 0.00 0.00 63 1016.7
20260902203501 23 115 4.8 8.0 0.00 0.00 0.00 62 1016.6
20260902203001 23 81 0.0 4.8 0.00 0.00 0.00 61 1016.7
20260902202501 23 127 3.2 9.7 0.00 0.00 0.00 60 1016.7
20260902202001 23 100 3.2 8.0 0.00 0.00 0.00 59 1016.7
20260902201500 23 82 6.4 9.7 0.00 0.00 0.00 56 1016.7
20260902201000 23 64 4.8 9.7 0.00 0.00 0.00 55 1016.6
20260902200501 23 8 3.2 8.0 0.00 0.00 0.00 53 1016.6
20260902200001 22 347 3.2 8.0 0.00 0.00 0.00 51 1016.6
20260902195501 22 26 0.0 1.6 0.00 0.00 0.00 49 1016.6
20260902195000 22 356 4.8 4.8 0.00 0.00 0.00 50 1016.5
20260902194501 22 354 1.6 4.8 0.00 0.00 0.00 50 1016.5
20260902194001 22 316 1.6 3.2 0.00 0.00 0.00 50 1016.4
20260902193501 23 316 0.0 1.6 0.00 0.00 0.00 49 1016.4
20260902193001 23 282 0.0 1.6 0.00 0.00 0.00 49 1016.4
20260902192501 23 282 3.2 4.8 0.00 0.00 0.00 48 1016.5
20260902192001 23 303 1.6 3.2 0.00 0.00 0.00 48 1016.5
20260902191500 23 354 0.0 1.6 0.00 0.00 0.00 47 1016.4
20260902191001 23 338 1.6 3.2 0.00 0.00 0.00 47 1016.4
20260902190501 23 346 1.6 3.2 0.00 0.00 0.00 47 1016.4
20260902190000 23 4 1.6 1.6 0.00 0.00 0.00 47 1016.3
20260902185501 23 19 0.0 3.2 0.00 0.00 0.00 46 1016.3
20260902185001 24 344 0.0 1.6 0.00 0.00 0.00 46 1016.3
20260902184501 24 355 3.2 3.2 0.00 0.00 0.00 45 1016.3
20260902184000 24 39 0.0 1.6 0.00 0.00 0.00 46 1016.3
20260902183501 24 12 0.0 1.6 0.00 0.00 0.00 45 1016.3
20260902183000 24 52 0.0 8.0 0.00 0.00 0.00 46 1016.2
20260902182501 23 69 0.0 1.6 0.00 0.00 0.00 46 1016.2
20260902182001 24 62 1.6 1.6 0.00 0.00 0.00 47 1016.2
20260902181501 24 74 0.0 3.2 0.00 0.00 0.00 47 1016.1
20260902181001 24 56 0.0 1.6 0.00 0.00 0.00 46 1016.1
20260902180501 25 64 0.0 1.6 0.00 0.00 0.00 46 1016.0
20260902180001 25 64 0.0 1.6 0.00 0.00 0.00 46 1016.0
20260902175501 25 64 0.0 1.6 0.00 0.00 0.00 46 1015.8
20260902175001 25 64 0.0 1.6 0.00 0.00 0.00 44 1015.7
20260902174501 26 64 0.0 0.0 0.00 0.00 0.00 44 1015.6
20260902174000 26 66 0.0 3.2 0.00 0.00 0.00 44 1015.6
20260902173500 26 68 0.0 0.0 0.00 0.00 0.00 42 1015.5
20260902173001 27 68 0.0 1.6 0.00 0.00 0.00 41 1015.4
20260902172501 27 80 0.0 3.2 0.00 0.00 0.00 40 1015.3
20260902172001 27 76 0.0 3.2 0.00 0.00 0.00 41 1015.3
20260902171500 27 75 1.6 3.2 0.00 0.00 0.00 39 1015.2
20260902171001 28 71 1.6 1.6 0.00 0.00 0.00 39 1015.1
20260902170501 28 68 1.6 1.6 0.00 0.00 0.00 40 1015.2
20260902170000 28 343 0.0 3.2 0.00 0.00 0.00 38 1015.0
20260902165501 28 340 0.0 3.2 0.00 0.00 0.00 38 1015.0
20260902165001 29 341 1.6 3.2 0.00 0.00 0.00 37 1015.0
20260902164501 29 353 1.6 1.6 0.00 0.00 0.00 37 1014.9
20260902155500 33 47 0.0 1.6 0.00 0.00 0.00 30 1015.1
20260902155001 33 335 1.6 1.6 0.00 0.00 0.00 29 1015.1
20260902154501 34 341 0.0 0.0 0.00 0.00 0.00 32 1015.1
20260902154000 34 64 1.6 1.6 0.00 0.00 0.00 30 1015.1
20260902153500 34 332 0.0 3.2 0.00 0.00 0.00 32 1015.1
20260902153001 34 342 3.2 3.2 0.00 0.00 0.00 30 1015.1
20260902152500 34 326 4.8 9.7 0.00 0.00 0.00 32 1015.0
20260902152001 34 359 4.8 8.0 0.00 0.00 0.00 32 1015.1
20260902151500 34 67 4.8 4.8 0.00 0.00 0.00 37 1015.1
20260902151000 34 87 3.2 4.8 0.00 0.00 0.00 36 1015.1
20260902150500 34 358 1.6 8.0 0.00 0.00 0.00 35 1015.2
20260902150000 34 105 3.2 4.8 0.00 0.00 0.00 34 1015.2
20260902145501 35 359 8.0 9.7 0.00 0.00 0.00 35 1015.2
20260902145000 34 163 0.0 4.8 0.00 0.00 0.00 35 1015.2
20260902144500 34 200 4.8 8.0 0.00 0.00 0.00 35 1015.2
20260902144000 34 292 0.0 4.8 0.00 0.00 0.00 34 1015.3
20260902143500 34 308 4.8 8.0 0.00 0.00 0.00 36 1015.3
20260902143001 34 343 3.2 4.8 0.00 0.00 0.00 37 1015.3
20260902142500 34 42 0.0 14.5 0.00 0.00 0.00 37 1015.4
20260902142000 34 21 8.0 14.5 0.00 0.00 0.00 37 1015.5
20260902141500 35 324 4.8 9.7 0.00 0.00 0.00 36 1015.6
20260902141000 35 336 8.0 9.7 0.00 0.00 0.00 37 1015.6
20260902140500 35 107 1.6 9.7 0.00 0.00 0.00 38 1015.7
20260902140000 34 128 3.2 4.8 0.00 0.00 0.00 38 1015.6
20260902135500 34 135 1.6 3.2 0.00 0.00 0.00 37 1015.7
20260902135000 33 129 3.2 8.0 0.00 0.00 0.00 38 1015.7
20260902134500 33 5 1.6 4.8 0.00 0.00 0.00 38 1015.8
20260902134000 33 323 1.6 4.8 0.00 0.00 0.00 38 1015.9
20260902133500 34 24 1.6 3.2 0.00 0.00 0.00 37 1016.1
20260902133000 34 293 4.8 8.0 0.00 0.00 0.00 38 1016.1
20260902132500 34 169 0.0 4.8 0.00 0.00 0.00 39 1016.2
20260902132000 34 175 0.0 3.2 0.00 0.00 0.00 38 1016.2
20260902131500 34 185 4.8 8.0 0.00 0.00 0.00 40 1016.2
20260902131000 34 157 3.2 3.2 0.00 0.00 0.00 38 1016.3
20260902130500 34 120 1.6 4.8 0.00 0.00 0.00 37 1016.4
20260902130001 34 335 9.7 14.5 0.00 0.00 0.00 37 1016.5
20260902125500 34 343 6.4 8.0 0.00 0.00 0.00 37 1016.5
20260902125000 34 52 1.6 8.0 0.00 0.00 0.00 38 1016.6
20260902124500 34 48 4.8 14.5 0.00 0.00 0.00 37 1016.6
20260902124000 34 185 1.6 8.0 0.00 0.00 0.00 39 1016.7
20260902123500 33 292 1.6 1.6 0.00 0.00 0.00 39 1016.8
20260902123000 33 285 3.2 4.8 0.00 0.00 0.00 39 1016.9
20260902122500 33 275 6.4 12.9 0.00 0.00 0.00 40 1016.9
20260902122000 33 328 6.4 14.5 0.00 0.00 0.00 40 1016.9
20260902121500 33 253 6.4 9.7 0.00 0.00 0.00 41 1017.0
20260902121001 33 198 6.4 9.7 0.00 0.00 0.00 43 1017.0
20260902120500 33 42 1.6 3.2 0.00 0.00 0.00 42 1017.2
20260902120000 33 279 6.4 12.9 0.00 0.00 0.00 42 1017.2
20260902115500 33 345 1.6 8.0 0.00 0.00 0.00 43 1017.3
20260902115000 33 265 3.2 9.7 0.00 0.00 0.00 44 1017.3
20260902114500 33 218 4.8 8.0 0.00 0.00 0.00 43 1017.4
20260902114000 33 216 3.2 8.0 0.00 0.00 0.00 44 1017.5
20260902113500 32 18 1.6 11.3 0.00 0.00 0.00 41 1017.6
20260902113000 32 277 11.3 12.9 0.00 0.00 0.00 44 1017.6
20260902112500 32 284 14.5 16.1 0.00 0.00 0.00 45 1017.7
20260902112000 32 8 3.2 8.0 0.00 0.00 0.00 45 1017.7
20260902111500 32 206 3.2 9.7 0.00 0.00 0.00 46 1017.8
20260902111000 31 215 3.2 3.2 0.00 0.00 0.00 49 1017.8
20260902110500 31 117 4.8 4.8 0.00 0.00 0.00 49 1017.8
20260902110000 31 97 3.2 4.8 0.00 0.00 0.00 47 1017.9
20260902105500 31 94 6.4 11.3 0.00 0.00 0.00 48 1017.9
20260902105000 31 106 6.4 9.7 0.00 0.00 0.00 48 1018.0
20260902104500 31 88 3.2 3.2 0.00 0.00 0.00 48 1018.1
20260902104000 31 32 1.6 8.0 0.00 0.00 0.00 48 1018.1
20260902103500 31 3 8.0 9.7 0.00 0.00 0.00 49 1018.1
20260902103000 31 305 1.6 8.0 0.00 0.00 0.00 49 1018.2
20260902102500 31 143 8.0 11.3 0.00 0.00 0.00 49 1018.2
20260902102000 31 296 1.6 3.2 0.00 0.00 0.00 50 1018.3
20260902101500 31 324 8.0 9.7 0.00 0.00 0.00 50 1018.3
20260902101000 31 318 4.8 11.3 0.00 0.00 0.00 49 1018.4
20260902100500 31 342 3.2 4.8 0.00 0.00 0.00 50 1018.5
20260902100000 31 40 1.6 4.8 0.00 0.00 0.00 50 1018.5
20260902095500 31 121 3.2 9.7 0.00 0.00 0.00 50 1018.5
20260902095000 31 208 3.2 8.0 0.00 0.00 0.00 51 1018.6
20260902094500 30 346 4.8 4.8 0.00 0.00 0.00 51 1018.7
20260902094001 30 34 1.6 8.0 0.00 0.00 0.00 51 1018.8
20260902093500 30 290 1.6 3.2 0.00 0.00 0.00 52 1018.8
20260902093000 30 336 8.0 9.7 0.00 0.00 0.00 52 1018.8
20260902092501 30 118 4.8 8.0 0.00 0.00 0.00 52 1018.8
20260902092000 30 148 1.6 4.8 0.00 0.00 0.00 54 1018.8
20260902091500 29 136 1.6 4.8 0.00 0.00 0.00 53 1018.8
20260902091000 29 328 4.8 4.8 0.00 0.00 0.00 52 1018.7
20260902090500 30 63 3.2 11.3 0.00 0.00 0.00 52 1018.8
20260902090000 30 96 3.2 4.8 0.00 0.00 0.00 54 1018.8
20260902085501 30 45 1.6 9.7 0.00 0.00 0.00 54 1018.8
20260902085000 30 110 6.4 8.0 0.00 0.00 0.00 55 1018.8
20260902084500 29 67 4.8 4.8 0.00 0.00 0.00 56 1018.8
20260902084000 29 101 4.8 9.7 0.00 0.00 0.00 56 1018.7
20260902083500 28 157 0.0 1.6 0.00 0.00 0.00 58 1018.8
20260902083000 28 107 4.8 11.3 0.00 0.00 0.00 57 1018.8
20260902082500 28 131 8.0 11.3 0.00 0.00 0.00 57 1018.8
20260902082000 28 181 1.6 4.8 0.00 0.00 0.00 58 1018.8
20260902081500 28 130 6.4 12.9 0.00 0.00 0.00 58 1018.8
20260902081000 28 155 4.8 4.8 0.00 0.00 0.00 57 1018.8
20260902080500 28 79 1.6 8.0 0.00 0.00 0.00 58 1018.8
20260902080000 28 75 1.6 4.8 0.00 0.00 0.00 60 1018.8
20260902075500 27 132 1.6 11.3 0.00 0.00 0.00 60 1018.8
20260902075000 27 120 8.0 9.7 0.00 0.00 0.00 61 1018.8
20260902074500 27 116 8.0 14.5 0.00 0.00 0.00 61 1018.8
20260902074000 27 98 1.6 3.2 0.00 0.00 0.00 63 1018.8
20260902073500 26 127 8.0 9.7 0.00 0.00 0.00 63 1018.8
20260902073000 26 96 4.8 8.0 0.00 0.00 0.00 64 1018.8
20260902072500 26 88 1.6 9.7 0.00 0.00 0.00 64 1018.8
20260902072000 26 66 3.2 12.9 0.00 0.00 0.00 64 1018.8
20260902071500 26 109 6.4 11.3 0.00 0.00 0.00 65 1018.8
20260902071000 25 94 3.2 8.0 0.00 0.00 0.00 66 1018.8
20260902070500 25 100 1.6 4.8 0.00 0.00 0.00 67 1018.9
20260902070000 25 41 1.6 4.8 0.00 0.00 0.00 68 1018.8
20260902065500 25 120 3.2 4.8 0.00 0.00 0.00 68 1018.8
20260902065000 24 124 3.2 8.0 0.00 0.00 0.00 69 1018.7
20260902064500 24 126 8.0 9.7 0.00 0.00 0.00 69 1018.8
20260902064000 24 124 4.8 11.3 0.00 0.00 0.00 70 1018.7
20260902063500 23 122 3.2 4.8 0.00 0.00 0.00 71 1018.6
20260902063000 23 95 3.2 9.7 0.00 0.00 0.00 71 1018.6
20260902062500 23 111 6.4 11.3 0.00 0.00 0.00 71 1018.6
20260902062000 23 168 3.2 8.0 0.00 0.00 0.00 72 1018.4
20260902061500 23 36 1.6 4.8 0.00 0.00 0.00 72 1018.4
20260902061000 23 126 4.8 12.9 0.00 0.00 0.00 73 1018.4
20260902060500 22 39 1.6 9.7 0.00 0.00 0.00 74 1018.5
20260902060000 22 89 4.8 11.3 0.00 0.00 0.00 75 1018.4
20260902055500 22 118 1.6 9.7 0.00 0.00 0.00 76 1018.5
20260902055000 22 96 1.6 4.8 0.00 0.00 0.00 77 1018.5
20260902054500 21 1 0.0 3.2 0.00 0.00 0.00 79 1018.5
20260902054000 21 18 1.6 4.8 0.00 0.00 0.00 80 1018.6
20260902053500 20 16 0.0 1.6 0.00 0.00 0.00 81 1018.6
20260902053000 20 34 0.0 1.6 0.00 0.00 0.00 82 1018.6
20260902052500 20 34 1.6 3.2 0.00 0.00 0.00 83 1018.5
20260902052000 20 360 3.2 3.2 0.00 0.00 0.00 84 1018.5
20260902051500 19 323 1.6 4.8 0.00 0.00 0.00 84 1018.5
20260902051000 19 4 0.0 3.2 0.00 0.00 0.00 85 1018.5
20260902050501 18 328 1.6 4.8 0.00 0.00 0.00 85 1018.5
20260902050000 18 340 1.6 3.2 0.00 0.00 0.00 85 1018.5
20260902045500 18 302 3.2 3.2 0.00 0.00 0.00 86 1018.3
20260902045000 18 3 1.6 3.2 0.00 0.00 0.00 86 1018.3
20260902044500 18 4 1.6 3.2 0.00 0.00 0.00 86 1018.3
20260902044000 18 4 3.2 4.8 0.00 0.00 0.00 86 1018.3
20260902043500 18 341 0.0 1.6 0.00 0.00 0.00 86 1018.2
20260902043000 18 341 0.0 3.2 0.00 0.00 0.00 86 1018.2
20260902042500 18 349 0.0 0.0 0.00 0.00 0.00 86 1018.1
20260902042000 18 349 0.0 1.6 0.00 0.00 0.00 86 1018.2
20260902041500 18 354 0.0 1.6 0.00 0.00 0.00 86 1018.2
20260902041000 18 355 3.2 4.8 0.00 0.00 0.00 86 1018.2
20260902040500 18 342 3.2 4.8 0.00 0.00 0.00 86 1018.2
20260902040000 18 303 1.6 3.2 0.00 0.00 0.00 86 1018.2
20260902035500 18 343 1.6 3.2 0.00 0.00 0.00 86 1018.2
20260902035000 18 1 0.0 1.6 0.00 0.00 0.00 86 1018.1
20260902034500 18 325 4.8 8.0 0.00 0.00 0.00 86 1018.0
20260902034000 18 352 1.6 3.2 0.00 0.00 0.00 85 1018.0
20260902033500 18 2 3.2 4.8 0.00 0.00 0.00 85 1018.0
20260902033000 18 322 1.6 4.8 0.00 0.00 0.00 85 1018.0
20260902032500 18 354 3.2 3.2 0.00 0.00 0.00 85 1017.9
20260902032000 18 352 0.0 4.8 0.00 0.00 0.00 85 1017.9
20260902031500 18 335 1.6 1.6 0.00 0.00 0.00 85 1017.9
20260902031000 18 313 1.6 3.2 0.00 0.00 0.00 85 1017.9
20260902030500 18 348 1.6 4.8 0.00 0.00 0.00 84 1017.8
20260902030000 18 326 0.0 8.0 0.00 0.00 0.00 84 1017.9
20260902025500 18 355 4.8 4.8 0.00 0.00 0.00 84 1017.9
20260902025000 18 22 8.0 11.3 0.00 0.00 0.00 84 1017.9
20260902024500 18 288 4.8 9.7 0.00 0.00 0.00 84 1017.9
20260902024000 18 310 1.6 3.2 0.00 0.00 0.00 83 1017.9
20260902023500 19 354 1.6 4.8 0.00 0.00 0.00 83 1018.0
20260902023000 19 336 1.6 9.7 0.00 0.00 0.00 83 1017.9
20260902022500 19 332 4.8 4.8 0.00 0.00 0.00 83 1017.8
20260902022000 19 303 4.8 9.7 0.00 0.00 0.00 82 1017.8
20260902021500 19 334 4.8 9.7 0.00 0.00 0.00 82 1017.8
20260902021000 19 325 4.8 4.8 0.00 0.00 0.00 82 1017.8
20260902020500 19 289 3.2 11.3 0.00 0.00 0.00 82 1017.8
20260902020000 19 340 4.8 9.7 0.00 0.00 0.00 82 1017.7
20260902015500 19 319 3.2 4.8 0.00 0.00 0.00 82 1017.6
20260902015000 20 303 1.6 3.2 0.00 0.00 0.00 82 1017.5
20260902014500 20 329 1.6 8.0 0.00 0.00 0.00 81 1017.5
20260902014000 20 296 3.2 3.2 0.00 0.00 0.00 81 1017.5
20260902013500 20 334 1.6 3.2 0.00 0.00 0.00 81 1017.5
20260902013000 20 322 3.2 4.8 0.00 0.00 0.00 81 1017.5
20260902012500 20 329 3.2 9.7 0.00 0.00 0.00 80 1017.4
20260902012000 20 354 8.0 12.9 0.00 0.00 0.00 80 1017.4
20260902011500 20 5 6.4 12.9 0.00 0.00 0.00 80 1017.4
20260902011000 20 320 4.8 14.5 0.00 0.00 0.00 80 1017.4
20260902010500 20 340 3.2 11.3 0.00 0.00 0.00 80 1017.4
20260902010000 20 303 6.4 11.3 0.00 0.00 0.00 79 1017.4
20260902005500 20 305 4.8 11.3 0.00 0.00 0.00 79 1017.4
20260902005000 20 330 6.4 9.7 0.00 0.00 0.00 78 1017.3
20260902004500 21 358 4.8 4.8 0.00 0.00 0.00 78 1017.3
20260902004000 21 337 3.2 4.8 0.00 0.00 0.00 77 1017.3
20260902003500 21 300 4.8 8.0 0.00 0.00 0.00 77 1017.3
20260902003000 21 295 4.8 4.8 0.00 0.00 0.00 77 1017.1
20260902002501 21 327 6.4 11.3 0.00 0.00 0.00 76 1017.1
20260902002000 21 329 8.0 12.9 0.00 0.00 0.00 76 1017.1
20260902001500 21 358 3.2 4.8 0.00 0.00 0.00 76 1017.1
20260902001000 21 6 4.8 4.8 0.00 0.00 0.00 75 1017.2
20260902000500 21 5 4.8 8.0 0.00 0.00 0.00 75 1017.2
20260902000001 21 346 1.6 4.8 0.00 0.00 0.00 74 1017.2
20260901235500 22 325 1.6 3.2 0.00 0.00 0.00 74 1017.2
20260901235000 22 338 4.8 4.8 0.00 0.00 0.00 73 1017.2
20260901234500 22 355 3.2 4.8 0.00 0.00 0.00 73 1017.2
20260901234000 22 347 3.2 8.0 0.00 0.00 0.00 73 1017.2
20260901233500 22 346 6.4 9.7 0.00 0.00 0.00 72 1017.1
20260901233000 22 349 4.8 8.0 0.00 0.00 0.00 72 1017.1
20260901232500 22 327 1.6 8.0 0.00 0.00 0.00 71 1017.2
20260901232000 22 337 1.6 3.2 0.00 0.00 0.00 71 1017.1
20260901231500 22 358 8.0 9.7 0.00 0.00 0.00 71 1017.1
20260901231000 23 348 9.7 11.3 0.00 0.00 0.00 71 1017.1
20260901230500 23 327 3.2 11.3 0.00 0.00 0.00 70 1017.0
20260901230000 23 329 8.0 14.5 0.00 0.00 0.00 70 1017.1
20260901225500 23 339 6.4 8.0 0.00 0.00 0.00 70 1017.0
20260901225000 23 3 4.8 8.0 0.00 0.00 0.00 70 1017.0
20260901224501 23 301 4.8 8.0 0.00 0.00 0.00 70 1017.0
20260901224000 23 349 3.2 4.8 0.00 0.00 0.00 70 1017.0
20260901223500 23 326 0.0 1.6 0.00 0.00 0.00 70 1017.0
20260901223000 23 333 1.6 1.6 0.00 0.00 0.00 70 1017.1
20260901222500 23 285 1.6 3.2 0.00 0.00 0.00 70 1017.2
20260901222000 23 344 1.6 4.8 0.00 0.00 0.00 70 1017.2
20260901221500 23 310 4.8 4.8 0.00 0.00 0.00 70 1017.1
20260901221000 23 333 3.2 4.8 0.00 0.00 0.00 69 1017.1
20260901220500 23 317 3.2 8.0 0.00 0.00 0.00 70 1017.1
20260901220000 23 311 3.2 4.8 0.00 0.00 0.00 69 1017.2
20260901215501 23 320 1.6 3.2 0.00 0.00 0.00 70 1017.2
20260901215000 23 312 1.6 1.6 0.00 0.00 0.00 70 1017.2
20260901214500 23 313 0.0 0.0 0.00 0.00 0.00 69 1017.3
20260901214001 23 313 0.0 1.6 0.00 0.00 0.00 69 1017.2
20260901213501 23 338 1.6 3.2 0.00 0.00 0.00 69 1017.1
20260901213001 23 347 0.0 1.6 0.00 0.00 0.00 69 1017.1
20260901212500 23 308 1.6 3.2 0.00 0.00 0.00 69 1017.0
20260901212000 23 308 3.2 3.2 0.00 0.00 0.00 69 1016.9
20260901211501 23 300 1.6 3.2 0.00 0.00 0.00 69 1016.9
20260901211000 23 308 3.2 3.2 0.00 0.00 0.00 69 1016.8
20260901210500 23 302 0.0 1.6 0.00 0.00 0.00 68 1016.8
20260901210000 23 301 0.0 1.6 0.00 0.00 0.00 68 1016.8
20260901205501 23 301 1.6 3.2 0.00 0.00 0.00 67 1016.7
20260901205000 23 304 1.6 3.2 0.00 0.00 0.00 67 1016.7